Temperature
17 17 17 17 18 18 20 23 25 25 26 26 26 26 25 25 24 22 21 20 20 20 20 19 18 17 16 16 15 15 15 15 15 15 15 14 14 14 14 14 13 13 13 13 13 13 14 14 14
17 17 17 18 18 19 21 23 24 25 26 25 25 25 25 25 24 22 21 20 19 19 19 18 18 17 16 16 15 15 15 15 15 14 14 14 14 14 13 13 13 13 13 13 13 13 13 14 14
17 17 18 19 19 20 22 24 24 25 25 25 25 25 25 24 23 22 21 20 19 18 18 18 18 17 16 16 15 15 15 14 14 14 14 14 13 13 13 13 13 13 13 13 13 13 13 14 14
16 17 19 19 20 22 23 24 24 25 25 25 25 25 24 24 23 22 21 20 19 18 18 18 17 17 16 15 15 15 15 14 14 14 14 13 13 13 13 13 13 12 12 12 13 13 13 13 13
16 18 18 19 20 22 24 24 25 24 24 25 25 24 23 23 22 22 21 19 19 18 17 17 17 16 16 15 15 15 15 14 14 14 14 13 13 13 13 12 12 12 12 12 12 13 13 13 13
17 19 18 19 21 23 24 24 24 24 24 25 24 24 23 22 22 21 20 19 18 18 17 17 17 16 16 15 15 15 14 14 14 14 13 13 12 12 12 12 12 12 12 12 12 12 13 13 13
17 17 18 19 21 22 23 24 24 23 23 24 24 23 22 22 21 21 20 19 18 17 17 17 16 16 16 15 15 14 14 14 14 14 13 13 13 12 12 12 12 12 12 12 12 12 12 13 13
17 17 18 19 20 22 23 24 24 24 23 24 24 23 22 21 21 20 19 19 18 17 17 17 16 16 15 15 15 14 14 14 14 13 13 13 13 12 12 12 12 12 12 12 12 12 12 13 13
16 16 17 19 20 21 23 23 23 23 23 23 23 23 22 21 20 20 19 18 18 17 17 16 16 16 15 15 15 14 14 14 13 13 13 13 13 12 12 12 12 12 12 12 12 12 12 12 12
16 15 17 19 20 21 21 21 22 22 21 22 22 22 21 21 20 19 19 18 18 17 17 16 16 15 15 15 14 14 14 14 14 13 13 13 12 12 12 11 11 11 12 12 12 12 12 12 12
17 16 18 19 20 20 20 20 21 21 20 21 22 21 21 20 19 19 19 18 18 18 17 16 16 15 15 15 14 14 14 14 13 13 13 12 12 12 11 11 11 11 12 12 12 12 12 12 12
17 17 18 19 19 19 19 20 20 20 21 21 21 21 20 20 19 19 19 18 18 18 17 17 16 15 15 15 14 14 14 14 13 13 13 12 12 11 11 11 12 12 12 12 12 12 12 11 11
17 17 18 18 18 18 18 19 19 19 20 20 20 20 20 20 19 19 19 19 18 18 18 17 16 16 15 15 14 14 14 14 13 13 13 12 12 12 12 11 11 11 11 12 11 11 11 11 11
16 17 17 18 18 18 18 18 18 19 20 20 20 20 20 20 19 19 19 19 19 18 18 17 17 16 16 15 15 14 14 14 13 13 13 13 12 12 12 12 11 11 11 11 11 11 11 11 11
16 16 16 17 18 18 17 17 18 19 20 20 20 20 20 20 20 20 19 19 19 18 18 17 17 16 16 15 15 15 14 14 14 14 13 13 13 12 12 12 12 11 11 11 11 11 10 10 10
15 15 15 17 17 18 16 15 18 20 20 20 20 20 20 20 20 20 20 19 19 18 18 17 17 16 16 15 15 15 14 14 14 14 14 13 13 13 12 12 12 12 11 11 11 11 10 10 10
14 14 15 17 18 17 16 16 18 19 19 19 20 20 20 20 20 20 20 19 19 18 18 17 17 16 16 15 15 14 14 14 14 14 13 13 13 13 12 12 12 12 11 11 11 11 11 10 10
14 14 15 16 17 17 16 16 17 19 19 19 19 19 20 20 20 20 19 19 19 18 18 17 17 16 16 15 14 14 14 14 14 13 14 14 13 13 13 12 12 12 11 11 11 11 10 10 10
14 14 14 15 17 16 15 16 17 18 18 18 19 19 19 19 19 19 19 19 18 18 18 17 17 16 16 15 14 14 14 14 14 14 14 14 13 13 13 12 12 12 11 11 11 11 11 10 10
14 13 14 15 16 16 15 16 17 18 18 18 18 19 19 19 19 19 19 18 18 18 18 17 17 16 16 15 15 15 15 14 14 14 13 13 13 13 13 13 12 12 12 11 11 11 11 10 10
13 13 13 14 14 15 15 15 16 17 18 18 18 19 19 19 19 19 18 18 18 18 18 17 17 17 16 16 15 14 14 13 13 13 13 13 13 13 13 13 13 12 12 12 12 11 11 11 10
13 14 14 14 13 12 14 13 15 16 17 17 18 18 18 18 18 18 18 18 18 17 17 17 17 17 16 15 15 14 14 13 14 14 14 14 14 13 13 13 13 13 12 12 12 12 11 11 10
13 14 13 13 12 12 13 12 14 16 16 17 17 18 18 18 18 18 18 18 17 17 17 17 17 17 16 15 15 14 14 14 14 14 13 13 13 13 13 13 13 12 12 12 12 12 11 11 11
13 13 12 12 12 11 13 13 13 15 16 16 17 17 17 17 17 17 17 17 17 17 17 17 16 16 16 15 15 14 14 14 13 13 13 13 13 13 13 13 13 13 12 12 12 12 11 11 11
12 11 11 11 11 11 14 14 14 16 17 17 16 16 16 16 16 16 16 16 16 16 16 16 16 16 15 15 15 14 14 14 13 13 13 13 13 13 13 13 13 13 12 12 12 11 11 11 11
12 12 10 10 11 12 14 13 14 16 16 16 16 16 16 15 15 15 15 15 15 15 15 15 15 15 15 15 15 14 14 14 13 13 13 13 13 13 13 13 13 13 12 12 12 11 11 11 11
12 11 12 11 11 10 12 14 15 16 16 15 15 15 15 15 14 14 14 14 14 14 15 15 15 14 14 14 14 14 14 13 13 13 13 13 13 13 12 12 12 12 12 12 12 11 11 11 11
12 12 11 10 9 10 11 13 13 14 14 14 14 14 14 14 14 14 13 13 14 14 14 14 14 14 14 14 14 13 13 13 13 13 13 12 12 12 12 12 12 12 12 12 11 11 11 11 10
11 11 10 10 10 9 10 12 15 14 14 14 13 14 13 13 13 13 13 13 13 13 13 13 13 13 13 13 13 13 13 13 13 12 12 12 12 12 12 11 11 11 11 11 11 11 10 10 10
11 11 10 9 9 10 9 11 14 14 13 13 13 13 13 13 13 13 12 13 12 12 12 13 13 13 13 13 13 12 12 12 12 12 12 12 12 12 12 11 11 11 11 11 10 10 10 10 10
Wind_Speed
7 10 8 4 4 7 11 8 7 5 3 1 3 4 5 5 3 3 6 8 13 15 18 20 20 20 18 17 16 15 15 14 14 13 12 12 12 12 12 11 11 11 11 11 12 11 11 11 12
8 9 6 4 6 9 9 9 9 6 2 3 2 3 5 2 4 8 7 10 13 15 17 18 20 20 18 17 16 16 15 14 14 13 13 12 12 12 12 11 11 11 11 11 11 11 11 11 11
10 10 5 5 8 11 7 4 4 3 1 1 2 3 4 1 3 6 9 12 12 13 16 18 21 20 19 18 17 16 15 14 14 13 13 12 12 12 12 11 11 11 11 12 12 11 11 11 11
6 6 5 9 15 12 10 6 2 4 3 3 4 4 2 1 4 7 11 11 12 12 15 19 21 20 19 18 17 16 15 14 14 13 13 12 12 12 12 11 11 11 11 11 11 11 11 10 10
6 5 8 12 17 13 9 7 6 6 4 5 6 5 2 3 10 11 10 10 10 11 14 19 21 20 19 18 17 16 16 15 14 14 13 13 12 12 12 12 11 11 11 10 10 10 10 9 8
5 5 9 14 15 12 9 7 7 8 7 5 5 6 3 6 9 9 8 8 9 11 13 18 20 20 20 19 18 17 16 15 15 14 14 13 13 13 12 12 12 11 10 10 10 9 9 8 7
7 7 12 14 12 11 8 6 7 7 9 7 4 6 3 6 8 8 8 8 8 10 12 14 16 17 19 18 18 17 16 16 15 15 14 14 14 13 13 12 12 11 11 10 10 9 8 8 7
5 6 12 13 13 11 6 6 6 6 7 5 3 5 2 7 8 7 6 7 8 9 11 13 14 15 15 16 17 17 16 16 15 15 14 14 14 13 13 12 12 12 11 10 10 9 8 8 7
5 8 13 12 10 8 6 6 6 4 6 8 4 3 3 8 8 7 6 5 7 8 10 12 13 13 14 15 17 17 16 16 15 14 15 14 12 12 12 13 13 13 12 11 10 10 9 8 7
7 10 15 11 9 9 10 9 7 6 9 9 5 2 5 5 6 8 8 9 9 10 10 11 13 13 12 13 14 14 14 14 14 13 15 14 13 13 13 15 16 14 12 11 11 10 10 8 8
8 12 12 13 11 10 11 11 9 9 10 10 7 4 5 6 7 8 9 9 10 10 10 11 12 12 11 8 11 10 11 12 14 15 16 15 12 11 11 11 12 12 12 10 10 10 9 10 9
11 14 14 14 10 9 11 11 11 12 12 8 8 5 5 8 9 10 10 9 9 10 11 11 12 11 11 9 9 9 8 8 9 13 16 12 7 7 8 7 10 10 10 9 9 8 10 10 10
14 13 13 13 12 11 11 13 13 15 14 11 8 7 8 10 10 10 9 9 9 10 12 11 11 12 11 10 9 9 8 8 10 11 15 13 7 7 7 7 9 10 11 9 7 7 7 7 7
9 10 13 13 13 11 12 14 13 15 13 12 10 10 10 11 11 10 9 10 10 10 11 12 12 12 11 10 10 9 8 9 10 10 13 15 11 8 7 7 7 8 10 10 8 7 6 6 5
9 11 13 13 11 10 9 14 15 14 12 13 12 11 11 12 11 11 10 10 10 9 10 11 13 12 12 11 10 8 8 9 8 9 13 15 13 11 8 8 7 7 10 10 8 7 5 5 5
9 9 9 8 9 9 8 14 11 9 10 12 12 11 10 10 11 10 10 9 8 8 9 11 11 13 13 11 10 8 7 8 8 10 12 14 15 13 9 8 8 9 9 7 6 6 5 5 5
7 8 11 9 8 7 10 12 11 10 11 13 12 11 9 8 8 8 8 9 9 9 9 10 11 13 12 11 10 9 8 8 7 9 10 12 15 15 11 8 8 10 7 7 7 6 6 5 5
5 9 11 11 7 9 12 15 14 11 12 12 11 10 9 9 8 7 6 7 8 8 8 9 10 11 11 9 8 7 8 8 7 8 9 12 14 15 12 9 10 10 8 7 7 7 6 5 6
9 12 15 14 10 10 14 17 17 14 12 11 10 10 9 9 8 7 6 6 7 7 8 10 10 11 10 9 10 10 10 9 9 9 10 12 14 15 12 10 10 10 9 9 9 7 8 7 5
11 13 15 13 10 10 14 19 17 16 13 11 11 10 9 9 8 7 6 6 6 7 8 9 10 11 11 10 10 9 9 9 9 8 9 12 14 15 13 13 11 11 9 11 11 8 7 6 7
12 11 11 12 14 11 13 14 14 10 9 10 11 10 10 9 8 7 6 6 6 6 8 9 10 11 12 11 7 6 6 6 7 9 10 12 13 14 14 15 12 12 12 11 12 11 11 9 8
10 8 10 12 11 7 6 9 11 10 9 9 9 8 7 7 7 6 6 6 7 7 7 8 9 10 11 11 10 11 10 11 12 11 11 11 14 14 15 15 15 13 12 12 13 13 9 9 8
7 7 10 12 11 12 10 9 9 7 9 7 6 5 4 4 5 5 5 6 6 6 6 6 7 9 11 12 13 13 12 11 9 9 11 12 12 14 15 15 15 15 13 13 13 13 12 11 9
7 7 10 9 6 8 9 8 8 5 5 4 4 2 1 2 3 4 3 3 4 5 5 6 7 8 10 12 13 14 14 13 11 12 12 12 11 12 15 15 15 15 14 14 14 14 14 13 12
4 3 3 3 5 7 4 6 7 4 3 2 1 1 2 2 3 4 4 3 3 3 4 5 7 8 9 11 13 14 15 15 14 13 13 12 11 11 15 15 15 14 14 14 14 14 14 14 13
5 5 4 4 4 5 4 7 5 2 0 2 2 1 2 3 3 4 5 3 3 3 3 5 6 8 9 10 12 13 13 12 11 13 12 13 12 12 13 15 15 15 15 14 14 13 13 12 14
4 6 5 6 7 7 7 7 6 5 2 1 1 1 2 3 5 5 6 4 4 4 3 4 6 7 8 9 9 11 12 11 11 11 12 10 10 10 13 14 15 15 15 15 14 13 14 13 14
7 4 3 4 4 6 8 8 5 4 3 2 2 2 4 5 5 6 6 5 4 4 4 4 5 7 6 7 8 8 10 11 11 10 11 11 11 10 12 14 15 15 15 15 14 11 11 14 13
6 6 6 5 5 5 6 5 2 3 3 3 3 4 5 6 6 5 5 5 5 4 4 4 5 5 5 6 7 8 8 9 9 10 11 11 10 11 11 12 14 15 16 15 14 14 13 14 14
6 7 7 6 7 6 7 8 5 5 5 5 6 7 6 6 6 6 6 4 4 4 4 4 4 4 4 5 5 7 7 7 8 9 10 10 10 11 11 11 12 13 14 14 15 15 15 15 15
Wind_Direction
232 227 222 230 234 233 242 238 249 259 264 346 18 335 317 311 341 103 169 150 125 137 146 158 160 160 160 158 154 151 149 146 142 140 139 136 132 128 124 122 120 116 116 114 113 109 105 104 102
240 229 224 230 235 238 240 229 244 257 264 46 31 299 289 315 73 115 145 127 131 138 146 158 160 162 162 160 158 156 152 150 148 146 143 140 138 135 131 127 124 119 115 113 113 112 109 106 104
245 235 226 228 234 239 247 215 229 234 249 145 234 249 262 324 100 125 134 133 136 139 149 156 160 164 164 163 161 159 157 155 153 152 148 145 144 142 138 132 129 124 119 116 114 114 112 108 106
236 224 235 238 245 243 257 272 274 245 205 190 237 253 189 96 76 105 123 139 143 143 146 153 162 164 165 166 165 164 163 163 161 159 156 153 149 148 145 139 134 131 127 124 121 120 116 112 111
232 232 231 239 246 248 251 268 286 279 236 209 225 245 260 92 99 112 132 147 151 149 144 155 164 167 168 169 170 169 168 168 168 164 161 159 156 152 150 146 142 139 136 133 130 127 123 120 118
227 232 236 239 245 245 244 246 257 268 268 235 229 249 226 137 124 133 145 153 158 148 144 155 165 168 170 172 173 173 173 173 173 170 168 166 162 159 157 153 150 149 147 145 139 135 132 131 130
239 245 247 253 254 250 247 252 251 251 266 252 220 254 218 149 131 139 150 159 159 150 145 152 166 169 172 174 176 175 175 176 177 176 174 171 168 167 164 161 159 158 157 154 150 147 143 142 142
252 260 253 252 256 258 256 257 265 277 279 286 239 248 215 136 129 138 152 162 157 153 153 157 167 171 174 175 177 176 177 178 179 179 177 174 172 172 168 167 167 165 163 163 161 160 157 155 158
248 244 247 249 259 272 285 280 277 291 282 281 270 290 114 126 135 147 159 167 167 167 164 164 170 174 175 176 180 177 177 179 179 178 177 172 170 171 173 174 171 171 171 171 171 171 168 167 176
214 238 245 256 273 285 291 292 289 270 268 267 262 217 126 141 166 178 186 187 185 182 178 173 174 175 176 179 171 175 179 179 181 180 176 179 181 181 180 173 173 176 177 178 180 182 182 183 189
224 238 257 266 275 286 288 286 284 273 262 262 260 223 173 183 203 204 203 199 194 187 185 180 179 178 176 172 169 176 180 180 188 186 183 185 184 175 163 158 164 173 177 180 184 188 197 204 196
241 249 254 265 276 281 282 282 277 267 267 274 277 246 216 208 212 212 211 207 200 192 189 185 180 181 179 174 175 177 179 182 188 188 186 184 176 168 163 165 170 176 183 184 183 193 208 210 196
244 252 258 263 269 269 274 273 274 269 269 274 270 246 227 224 225 222 219 211 203 198 190 187 185 183 181 179 181 181 181 182 184 185 187 183 172 174 168 175 177 183 185 183 186 198 202 202 199
262 269 269 270 265 267 265 267 263 263 261 263 258 240 232 234 232 230 224 215 206 203 194 187 189 186 184 185 186 184 182 180 183 181 186 183 178 174 172 177 178 184 184 184 191 198 196 197 194
272 272 266 253 247 251 267 265 249 250 254 254 253 245 236 232 229 228 226 221 213 205 196 190 190 187 187 190 190 187 184 182 184 182 187 186 182 178 173 179 182 184 185 185 191 201 197 194 193
260 259 256 243 234 235 236 258 256 260 255 259 258 256 246 235 230 226 222 220 215 207 202 195 192 191 191 192 192 190 188 186 187 184 186 189 185 181 177 183 185 185 184 182 187 192 191 195 194
236 252 260 267 232 242 241 264 268 265 260 259 259 261 257 248 242 232 221 217 214 209 204 197 192 192 193 193 190 191 191 192 189 187 187 191 190 185 181 185 185 184 181 184 190 192 185 191 198
265 276 279 276 269 267 267 273 279 269 259 256 256 260 262 254 245 240 229 216 212 210 205 199 194 194 192 191 192 193 197 196 194 194 193 191 193 189 185 186 187 184 184 187 188 191 191 191 191
282 281 282 284 290 281 274 277 277 275 264 257 256 256 255 251 242 236 232 220 211 205 203 200 197 197 194 194 196 198 202 201 200 200 198 198 194 190 188 191 190 189 191 190 189 189 193 200 186
277 277 279 288 295 290 279 276 274 265 256 252 255 256 254 255 246 234 230 225 219 208 206 205 201 198 198 199 201 201 200 202 203 202 204 205 198 193 195 193 195 193 191 192 194 192 191 197 185
264 269 279 291 303 286 281 277 267 267 253 248 246 246 252 251 248 238 230 232 226 219 215 216 206 200 201 197 194 196 194 197 203 207 210 211 204 199 196 198 196 196 194 198 199 197 193 199 197
272 277 287 291 295 289 289 290 274 264 251 243 244 244 243 248 250 244 232 227 222 223 219 218 210 201 199 197 195 197 203 207 210 205 208 210 207 206 201 200 200 199 200 200 201 201 200 192 200
277 292 282 279 278 281 267 268 274 257 247 237 242 241 240 246 244 252 245 236 222 215 219 223 218 208 200 198 201 204 212 215 212 206 208 213 211 210 207 204 203 204 204 204 203 203 203 202 202
284 291 278 260 254 263 246 238 275 256 246 240 243 254 300 323 296 279 264 256 235 214 214 224 224 218 208 202 203 207 212 213 212 211 212 213 213 212 211 208 207 207 207 206 207 206 204 206 206
255 278 286 255 220 241 235 240 254 260 270 267 328 357 358 338 331 324 316 305 297 246 224 228 225 223 215 208 207 210 213 214 215 214 212 210 213 213 212 210 209 210 212 209 206 208 209 207 207
240 236 246 267 259 284 279 247 257 247 316 50 50 7 327 324 324 315 306 303 307 283 240 237 231 229 221 213 212 215 216 217 220 217 215 213 216 214 209 211 213 213 211 211 211 212 212 210 212
250 240 261 279 287 278 253 255 268 274 295 337 312 343 336 334 333 327 327 322 316 302 265 253 246 238 233 224 217 219 219 221 223 221 217 216 216 213 208 210 213 215 213 212 212 218 215 211 212
244 277 278 245 268 268 266 259 261 276 283 322 317 329 333 336 333 330 324 319 309 297 280 263 256 242 242 236 226 225 223 224 225 223 222 220 217 213 208 211 212 213 215 214 214 219 218 215 215
226 236 241 251 247 262 277 267 322 340 345 349 342 346 332 321 318 318 312 313 314 317 304 280 262 253 246 240 236 231 228 227 228 227 227 223 220 214 211 211 213 213 214 215 216 219 216 219 218
240 239 232 244 253 255 273 272 302 331 343 342 329 326 317 312 305 306 308 312 320 318 313 303 286 267 261 253 245 235 231 231 232 232 231 227 222 217 213 212 214 215 214 213 216 219 216 218 220
Height
1495 1497 1499 1501 1503 1500 1491 1477 1469 1467 1466 1466 1468 1469 1470 1471 1475 1483 1481 1480 1479 1479 1481 1484 1486 1489 1491 1494 1497 1499 1501 1503 1504 1506 1508 1509 1510 1511 1513 1514 1515 1516 1517 1518 1519 1520 1520 1521 1522
1494 1497 1500 1500 1499 1498 1484 1472 1469 1466 1466 1467 1469 1471 1471 1472 1473 1476 1477 1479 1479 1479 1481 1483 1486 1488 1491 1494 1496 1498 1500 1502 1504 1505 1507 1509 1510 1511 1513 1514 1515 1516 1517 1518 1519 1520 1520 1521 1522
1494 1496 1498 1494 1490 1487 1476 1466 1465 1464 1466 1468 1470 1471 1472 1473 1474 1475 1476 1477 1478 1479 1480 1483 1485 1488 1490 1493 1496 1498 1500 1502 1503 1505 1507 1508 1510 1511 1513 1514 1515 1516 1517 1518 1519 1520 1521 1521 1522
1493 1496 1494 1490 1483 1473 1468 1464 1463 1464 1466 1468 1470 1470 1470 1472 1473 1474 1475 1476 1478 1479 1480 1482 1485 1487 1490 1492 1495 1497 1499 1501 1503 1504 1506 1507 1509 1510 1512 1513 1514 1515 1516 1518 1519 1520 1521 1521 1522
1492 1492 1490 1485 1476 1467 1464 1464 1463 1463 1464 1466 1468 1468 1470 1471 1471 1472 1474 1476 1477 1478 1479 1481 1484 1486 1489 1491 1494 1496 1498 1500 1502 1503 1505 1507 1508 1510 1511 1512 1514 1515 1516 1517 1518 1520 1521 1521 1522
1490 1486 1486 1481 1471 1464 1462 1463 1464 1464 1463 1464 1466 1467 1469 1469 1470 1471 1473 1475 1477 1478 1478 1480 1483 1485 1488 1490 1492 1495 1497 1499 1500 1502 1504 1505 1507 1509 1510 1511 1513 1514 1515 1517 1518 1519 1520 1521 1522
1487 1484 1480 1474 1469 1464 1461 1461 1462 1463 1463 1463 1465 1466 1467 1468 1468 1470 1472 1474 1476 1477 1478 1478 1481 1484 1486 1489 1491 1493 1495 1497 1499 1501 1502 1504 1506 1507 1509 1510 1512 1513 1515 1516 1517 1518 1519 1521 1522
1483 1482 1476 1471 1468 1463 1460 1460 1460 1461 1462 1463 1463 1464 1465 1466 1467 1469 1471 1473 1475 1476 1476 1477 1479 1481 1484 1486 1489 1491 1493 1495 1497 1499 1501 1502 1504 1506 1507 1509 1510 1512 1513 1515 1516 1517 1519 1520 1521
1481 1482 1476 1469 1466 1462 1459 1459 1460 1460 1461 1462 1461 1462 1463 1464 1465 1467 1469 1471 1473 1474 1475 1476 1477 1479 1481 1484 1486 1489 1491 1493 1495 1496 1498 1500 1502 1504 1506 1507 1509 1510 1512 1513 1515 1516 1517 1519 1520
1477 1477 1469 1465 1463 1461 1460 1460 1460 1460 1460 1460 1460 1461 1461 1462 1464 1465 1466 1468 1469 1471 1472 1474 1475 1477 1479 1481 1483 1485 1488 1490 1492 1494 1496 1498 1499 1501 1503 1505 1507 1509 1510 1512 1513 1515 1516 1517 1519
1471 1469 1466 1464 1462 1462 1461 1460 1459 1459 1459 1458 1458 1458 1459 1460 1461 1462 1463 1464 1466 1468 1469 1471 1472 1474 1476 1478 1480 1482 1484 1486 1488 1491 1493 1495 1497 1499 1501 1503 1505 1506 1508 1509 1511 1513 1514 1515 1517
1467 1464 1464 1462 1462 1461 1460 1459 1458 1457 1456 1456 1456 1456 1456 1457 1458 1459 1460 1461 1463 1464 1465 1467 1469 1471 1473 1475 1476 1478 1480 1482 1485 1487 1490 1492 1494 1496 1498 1500 1502 1503 1505 1507 1509 1510 1512 1514 1515
1464 1462 1461 1460 1460 1459 1458 1457 1456 1453 1453 1453 1453 1453 1453 1454 1454 1455 1457 1458 1459 1461 1462 1463 1465 1467 1469 1471 1473 1475 1477 1479 1481 1484 1486 1489 1491 1493 1495 1497 1499 1501 1502 1504 1506 1508 1510 1512 1514
1461 1460 1459 1458 1457 1457 1456 1453 1453 1448 1449 1449 1449 1449 1449 1450 1451 1452 1453 1454 1455 1456 1457 1458 1460 1463 1465 1467 1469 1471 1473 1476 1478 1480 1482 1485 1487 1489 1491 1493 1496 1498 1500 1501 1503 1505 1508 1509 1511
1461 1459 1456 1453 1453 1453 1454 1450 1446 1444 1445 1444 1444 1444 1444 1445 1446 1447 1448 1449 1450 1452 1453 1454 1455 1458 1460 1462 1465 1467 1469 1472 1474 1476 1478 1480 1482 1485 1487 1490 1492 1494 1497 1499 1501 1503 1505 1507 1508
1459 1459 1457 1449 1449 1449 1454 1450 1441 1440 1440 1439 1439 1439 1439 1439 1441 1442 1443 1444 1445 1447 1448 1450 1451 1453 1455 1457 1460 1463 1465 1467 1469 1471 1473 1476 1478 1481 1483 1486 1488 1490 1493 1495 1497 1499 1502 1503 1505
1458 1459 1454 1448 1444 1445 1447 1443 1436 1436 1435 1434 1434 1434 1434 1434 1435 1436 1438 1439 1440 1441 1443 1444 1446 1448 1450 1452 1455 1458 1460 1462 1464 1466 1468 1471 1473 1476 1478 1481 1484 1486 1488 1491 1493 1495 1497 1499 1501
1460 1457 1452 1449 1442 1443 1443 1439 1433 1431 1430 1429 1429 1429 1429 1429 1430 1431 1433 1434 1435 1436 1437 1439 1441 1443 1445 1448 1450 1453 1455 1457 1459 1461 1463 1465 1468 1470 1473 1476 1479 1482 1484 1486 1488 1491 1493 1495 1497
1455 1455 1453 1446 1440 1442 1439 1435 1429 1425 1425 1423 1423 1423 1424 1424 1425 1426 1427 1429 1430 1431 1432 1434 1435 1437 1439 1441 1444 1446 1448 1450 1453 1455 1457 1460 1462 1465 1468 1470 1473 1476 1478 1480 1483 1486 1488 1490 1493
1455 1456 1452 1445 1439 1440 1437 1431 1424 1419 1418 1418 1418 1418 1419 1419 1420 1421 1423 1424 1425 1425 1426 1428 1429 1431 1432 1434 1436 1439 1442 1444 1447 1449 1452 1454 1456 1459 1461 1464 1467 1469 1472 1475 1477 1480 1482 1485 1487
1454 1454 1451 1448 1442 1438 1437 1430 1420 1413 1412 1413 1413 1413 1413 1414 1415 1416 1417 1418 1419 1420 1421 1422 1423 1424 1426 1428 1431 1435 1438 1440 1442 1443 1445 1447 1450 1452 1454 1458 1461 1463 1466 1468 1470 1473 1476 1478 1481
1453 1448 1447 1446 1448 1446 1440 1440 1420 1412 1410 1408 1408 1408 1408 1409 1410 1411 1411 1412 1413 1414 1415 1416 1417 1418 1420 1422 1424 1426 1428 1429 1431 1434 1437 1440 1443 1446 1448 1451 1453 1456 1459 1461 1463 1466 1469 1471 1473
1448 1446 1446 1445 1447 1447 1440 1442 1422 1409 1407 1404 1403 1403 1404 1405 1405 1406 1407 1407 1408 1409 1410 1411 1412 1413 1414 1416 1417 1419 1421 1423 1426 1429 1431 1433 1436 1439 1441 1443 1446 1449 1451 1454 1456 1459 1461 1463 1465
1445 1446 1444 1442 1445 1449 1434 1437 1423 1408 1403 1401 1400 1401 1402 1403 1403 1403 1403 1403 1403 1404 1405 1406 1407 1408 1409 1410 1411 1413 1414 1417 1419 1421 1423 1425 1428 1431 1433 1436 1438 1441 1443 1446 1448 1451 1453 1456 1458
1446 1452 1454 1450 1449 1441 1422 1425 1416 1401 1397 1397 1398 1398 1399 1400 1401 1401 1400 1399 1399 1399 1400 1401 1402 1402 1403 1404 1405 1406 1408 1410 1412 1414 1416 1418 1420 1422 1424 1428 1430 1433 1435 1438 1441 1443 1445 1448 1450
1445 1448 1456 1456 1447 1433 1422 1421 1408 1397 1395 1395 1396 1397 1398 1398 1399 1398 1398 1396 1396 1395 1395 1396 1396 1397 1398 1398 1399 1401 1402 1404 1405 1407 1409 1410 1412 1414 1417 1420 1422 1425 1427 1430 1433 1435 1437 1439 1441
1444 1445 1441 1448 1444 1443 1427 1411 1401 1394 1394 1395 1396 1396 1397 1397 1397 1396 1395 1393 1392 1391 1391 1391 1391 1392 1392 1393 1394 1395 1396 1397 1399 1400 1402 1403 1405 1408 1410 1412 1414 1416 1419 1422 1425 1427 1429 1431 1433
1440 1441 1445 1448 1450 1444 1425 1414 1409 1399 1396 1396 1396 1396 1397 1397 1396 1394 1392 1390 1389 1388 1387 1387 1386 1386 1387 1387 1388 1389 1390 1391 1392 1394 1395 1397 1399 1401 1403 1404 1406 1408 1411 1413 1416 1418 1420 1423 1424
1440 1441 1442 1443 1441 1443 1434 1417 1396 1397 1395 1396 1396 1396 1396 1395 1394 1391 1390 1388 1386 1385 1384 1383 1382 1382 1381 1381 1382 1383 1384 1385 1386 1387 1388 1390 1392 1394 1395 1397 1399 1400 1402 1404 1407 1409 1412 1414 1416
1433 1435 1439 1446 1441 1434 1432 1418 1397 1396 1395 1395 1396 1395 1394 1393 1392 1390 1387 1385 1384 1382 1381 1380 1379 1377 1377 1376 1376 1376 1377 1379 1379 1379 1381 1382 1384 1385 1387 1389 1391 1393 1394 1396 1398 1400 1403 1405 1407